STARLINK-33965 (64755 NORAD) Tracking and Keplerian Element Data

This shows tracking and keplerian element data for the satellite.

Feedback or suggestion? Click here.




ElementValue
Catalog64755
NameSTARLINK-33965
Epoch Orbit2659
Epoch Day354.01507517
Epoch Year2025
RAAN252.8117
Inclination53.1591
Eccentricity0.000134
Argument of Perigee94.8648
Mean Anonmoly265.2506
Mean Motion15.30188666
Decay Rate0.00016189
L11 64755U 25147A 25354.01507517 .00016189 00000+0 55770-3 0 9992
L22 64755 53.1591 252.8117 0001340 94.8648 265.2506 15.30188666 26598



Live tracking and technical data element details for STARLINK-33965 (NORAD 64755). STARLINK-33965 can be tracked NOW for your location showing map with azimuth and elevation plus other details from your city location.







IsCatalogInMostPopularTable: catalog: 64755, numindb: 10
Update: records affected: 1



GetName: 64755 STARLINK-33965

Hit Count: updated at: Tue, 21 Apr 2026 19:21:46 GMT